Total_Precipitation_Accumulation
0.03 0.03 0.02 0.02 0.01 0.00 0.00 0.01 0.01 0.02 0.02 0.02 0.03 0.03 0.05 0.09 0.11 0.05 0.01 0.00 0.01 0.01 0.00 0.00 0.00 0.00 0.00 0.00 0.00 0.00 0.00 0.00 0.00 0.00 0.01 0.00 0.00 0.00 0.00 0.00 0.00 0.00 0.00 0.00 0.01 0.04 0.08 0.02 0.01 0.03 0.03 0.02 0.01 0.02
0.02 0.01 0.01 0.02 0.01 0.00 0.00 0.01 0.00 0.01 0.01 0.01 0.01 0.02 0.04 0.08 0.17 0.19 0.12 0.01 0.04 0.12 0.02 0.00 0.00 0.00 0.00 0.00 0.00 0.00 0.00 0.00 0.00 0.01 0.02 0.03 0.02 0.01 0.01 0.02 0.00 0.00 0.01 0.01 0.01 0.00 0.00 0.01 0.02 0.03 0.02 0.01 0.00 0.00
0.03 0.02 0.01 0.01 0.01 0.00 0.00 0.00 0.00 0.00 0.00 0.00 0.01 0.03 0.07 0.10 0.19 0.26 0.23 0.21 0.37 0.57 0.26 0.03 0.00 0.00 0.00 0.00 0.00 0.00 0.00 0.00 0.00 0.01 0.03 0.02 0.02 0.00 0.00 0.01 0.01 0.00 0.01 0.02 0.02 0.00 0.00 0.00 0.00 0.00 0.00 0.00 0.00 0.00
0.01 0.00 0.00 0.00 0.00 0.00 0.00 0.00 0.00 0.00 0.00 0.00 0.00 0.03 0.08 0.14 0.21 0.16 0.11 0.15 0.29 0.41 0.17 0.00 0.00 0.00 0.00 0.00 0.00 0.00 0.00 0.00 0.02 0.05 0.19 0.17 0.08 0.04 0.03 0.03 0.02 0.00 0.01 0.01 0.01 0.00 0.00 0.00 0.00 0.00 0.00 0.00 0.00 0.00
0.00 0.00 0.00 0.00 0.00 0.00 0.00 0.01 0.00 0.00 0.00 0.00 0.01 0.03 0.03 0.05 0.11 0.10 0.09 0.11 0.17 0.18 0.07 0.00 0.00 0.00 0.00 0.00 0.00 0.00 0.00 0.01 0.08 0.28 0.33 0.17 0.08 0.12 0.12 0.08 0.03 0.00 0.00 0.02 0.01 0.00 0.00 0.00 0.00 0.00 0.00 0.00 0.00 0.00
0.00 0.00 0.00 0.01 0.00 0.00 0.01 0.01 0.01 0.00 0.01 0.02 0.04 0.04 0.03 0.03 0.03 0.01 0.01 0.00 0.00 0.03 0.13 0.02 0.00 0.00 0.00 0.00 0.00 0.00 0.00 0.03 0.22 0.41 0.33 0.25 0.15 0.39 0.47 0.09 0.00 0.00 0.00 0.00 0.00 0.00 0.00 0.00 0.00 0.00 0.00 0.00 0.00 0.00
0.00 0.00 0.01 0.01 0.01 0.00 0.00 0.00 0.01 0.01 0.03 0.04 0.04 0.04 0.07 0.03 0.00 0.00 0.00 0.01 0.02 0.09 0.30 0.16 0.00 0.00 0.03 0.01 0.00 0.01 0.00 0.01 0.06 0.14 0.13 0.04 0.03 0.28 0.28 0.05 0.00 0.00 0.00 0.00 0.00 0.00 0.00 0.00 0.00 0.00 0.00 0.01 0.00 0.02
0.01 0.00 0.00 0.01 0.01 0.00 0.00 0.01 0.02 0.02 0.02 0.03 0.03 0.02 0.05 0.02 0.00 0.00 0.00 0.02 0.01 0.03 0.02 0.03 0.00 0.00 0.00 0.00 0.01 0.01 0.02 0.02 0.05 0.05 0.02 0.01 0.02 0.09 0.09 0.00 0.00 0.00 0.00 0.00 0.00 0.00 0.00 0.00 0.00 0.00 0.01 0.01 0.00 0.01
0.01 0.01 0.01 0.00 0.00 0.00 0.02 0.03 0.03 0.03 0.03 0.03 0.02 0.01 0.01 0.00 0.00 0.00 0.00 0.01 0.00 0.02 0.03 0.02 0.01 0.00 0.00 0.00 0.00 0.00 0.01 0.02 0.02 0.04 0.01 0.02 0.03 0.07 0.01 0.00 0.00 0.00 0.00 0.01 0.02 0.01 0.00 0.00 0.00 0.00 0.02 0.01 0.00 0.00
0.01 0.01 0.01 0.00 0.00 0.01 0.04 0.04 0.04 0.06 0.06 0.02 0.00 0.00 0.00 0.00 0.00 0.00 0.01 0.03 0.12 0.13 0.06 0.02 0.00 0.00 0.00 0.00 0.00 0.00 0.00 0.01 0.03 0.01 0.01 0.03 0.01 0.00 0.01 0.01 0.04 0.07 0.07 0.04 0.04 0.01 0.00 0.01 0.01 0.02 0.03 0.02 0.02 0.01
0.02 0.01 0.00 0.01 0.00 0.02 0.05 0.04 0.04 0.08 0.01 0.00 0.00 0.00 0.00 0.00 0.01 0.01 0.02 0.06 0.04 0.07 0.04 0.01 0.00 0.01 0.01 0.02 0.05 0.04 0.03 0.03 0.07 0.00 0.03 0.04 0.01 0.02 0.07 0.13 0.16 0.18 0.16 0.11 0.08 0.04 0.03 0.03 0.01 0.01 0.02 0.02 0.03 0.02
0.03 0.02 0.01 0.01 0.02 0.04 0.04 0.03 0.02 0.00 0.00 0.00 0.00 0.00 0.00 0.00 0.02 0.04 0.05 0.06 0.10 0.04 0.02 0.04 0.08 0.14 0.11 0.19 0.35 0.21 0.14 0.11 0.05 0.05 0.19 0.06 0.08 0.14 0.10 0.06 0.05 0.05 0.05 0.12 0.17 0.20 0.08 0.05 0.01 0.01 0.01 0.01 0.00 0.02
0.02 0.03 0.02 0.02 0.02 0.06 0.02 0.03 0.00 0.00 0.00 0.00 0.00 0.00 0.01 0.02 0.06 0.07 0.03 0.04 0.11 0.11 0.06 0.18 0.37 0.48 0.41 0.45 0.43 0.17 0.15 0.06 0.05 0.13 0.15 0.26 0.14 0.05 0.04 0.03 0.01 0.06 0.14 0.23 0.20 0.13 0.10 0.03 0.01 0.02 0.02 0.00 0.01 0.06
0.02 0.03 0.03 0.03 0.05 0.06 0.03 0.03 0.00 0.00 0.00 0.00 0.00 0.00 0.00 0.01 0.02 0.00 0.01 0.07 0.09 0.09 0.04 0.19 0.65 0.64 0.33 0.45 0.22 0.16 0.03 0.08 0.16 0.19 0.33 0.17 0.03 0.01 0.01 0.00 0.01 0.07 0.12 0.13 0.12 0.04 0.02 0.04 0.05 0.07 0.04 0.03 0.08 0.07
0.03 0.04 0.06 0.05 0.10 0.05 0.04 0.03 0.00 0.00 0.00 0.00 0.01 0.01 0.00 0.00 0.00 0.00 0.00 0.00 0.00 0.00 0.07 0.38 0.38 0.43 0.34 0.30 0.16 0.16 0.21 0.26 0.31 0.35 0.28 0.10 0.02 0.01 0.01 0.00 0.01 0.05 0.17 0.09 0.09 0.05 0.02 0.01 0.02 0.06 0.04 0.06 0.07 0.05
0.05 0.08 0.05 0.04 0.10 0.05 0.07 0.02 0.00 0.00 0.00 0.00 0.00 0.00 0.00 0.00 0.00 0.00 0.00 0.00 0.00 0.00 0.04 0.11 0.16 0.18 0.41 0.22 0.34 0.36 0.28 0.29 0.35 0.28 0.14 0.06 0.01 0.00 0.00 0.00 0.02 0.09 0.17 0.29 0.27 0.17 0.13 0.05 0.01 0.01 0.03 0.03 0.03 0.03
0.06 0.04 0.04 0.02 0.05 0.06 0.02 0.00 0.00 0.00 0.00 0.00 0.00 0.00 0.00 0.00 0.00 0.00 0.00 0.00 0.00 0.03 0.04 0.04 0.09 0.13 0.17 0.16 0.16 0.20 0.26 0.29 0.16 0.04 0.02 0.02 0.03 0.01 0.00 0.01 0.01 0.08 0.03 0.02 0.01 0.09 0.18 0.08 0.08 0.14 0.08 0.05 0.04 0.03
0.01 0.01 0.01 0.01 0.03 0.04 0.01 0.00 0.00 0.00 0.00 0.00 0.00 0.00 0.00 0.00 0.00 0.00 0.00 0.00 0.00 0.04 0.07 0.07 0.05 0.02 0.02 0.02 0.07 0.13 0.11 0.03 0.00 0.00 0.00 0.01 0.00 0.00 0.00 0.00 0.00 0.05 0.06 0.03 0.02 0.02 0.01 0.01 0.02 0.02 0.04 0.03 0.01 0.00
0.00 0.00 0.01 0.00 0.00 0.00 0.00 0.00 0.00 0.00 0.00 0.00 0.00 0.00 0.00 0.00 0.00 0.00 0.00 0.00 0.00 0.01 0.10 0.08 0.05 0.04 0.03 0.07 0.10 0.04 0.01 0.01 0.02 0.00 0.00 0.00 0.00 0.00 0.00 0.00 0.00 0.01 0.04 0.04 0.04 0.04 0.02 0.00 0.00 0.00 0.00 0.00 0.00 0.00
0.01 0.01 0.00 0.00 0.00 0.00 0.00 0.00 0.00 0.00 0.00 0.00 0.00 0.00 0.00 0.00 0.00 0.00 0.00 0.00 0.01 0.06 0.10 0.07 0.01 0.02 0.05 0.04 0.03 0.02 0.02 0.03 0.04 0.01 0.00 0.00 0.00 0.00 0.00 0.00 0.00 0.01 0.02 0.03 0.04 0.04 0.04 0.03 0.01 0.00 0.00 0.00 0.00 0.00
0.01 0.01 0.00 0.00 0.00 0.00 0.02 0.07 0.04 0.00 0.00 0.00 0.00 0.00 0.00 0.00 0.00 0.00 0.00 0.00 0.01 0.01 0.01 0.01 0.03 0.03 0.02 0.01 0.01 0.02 0.02 0.03 0.02 0.03 0.02 0.02 0.00 0.00 0.00 0.00 0.01 0.01 0.01 0.02 0.02 0.02 0.02 0.03 0.03 0.01 0.00 0.00 0.00 0.00
0.00 0.00 0.00 0.00 0.00 0.00 0.01 0.00 0.00 0.01 0.03 0.01 0.00 0.00 0.00 0.00 0.00 0.00 0.00 0.00 0.00 0.01 0.03 0.06 0.05 0.03 0.01 0.00 0.00 0.00 0.00 0.00 0.00 0.01 0.01 0.01 0.01 0.01 0.01 0.01 0.02 0.02 0.01 0.01 0.02 0.01 0.01 0.01 0.01 0.02 0.01 0.00 0.00 0.00
0.00 0.00 0.00 0.01 0.01 0.01 0.01 0.01 0.04 0.02 0.03 0.01 0.02 0.02 0.00 0.00 0.00 0.00 0.00 0.00 0.02 0.02 0.04 0.04 0.02 0.00 0.00 0.00 0.00 0.00 0.00 0.00 0.00 0.00 0.00 0.00 0.00 0.00 0.01 0.01 0.02 0.03 0.02 0.01 0.03 0.02 0.01 0.01 0.01 0.02 0.02 0.01 0.00 0.00
0.03 0.04 0.03 0.08 0.10 0.01 0.01 0.02 0.03 0.03 0.05 0.03 0.03 0.01 0.00 0.00 0.00 0.02 0.01 0.00 0.01 0.00 0.00 0.00 0.00 0.00 0.00 0.00 0.00 0.00 0.00 0.00 0.00 0.00 0.00 0.00 0.01 0.00 0.01 0.01 0.01 0.02 0.03 0.04 0.03 0.02 0.02 0.02 0.02 0.02 0.02 0.02 0.02 0.01
0.15 0.07 0.05 0.04 0.04 0.06 0.02 0.01 0.01 0.02 0.01 0.00 0.01 0.00 0.01 0.00 0.01 0.00 0.00 0.00 0.00 0.00 0.00 0.01 0.01 0.01 0.01 0.00 0.00 0.00 0.00 0.01 0.02 0.02 0.00 0.00 0.01 0.02 0.02 0.02 0.02 0.01 0.03 0.08 0.05 0.05 0.04 0.05 0.04 0.03 0.03 0.03 0.03 0.02
0.07 0.00 0.01 0.00 0.01 0.02 0.01 0.01 0.00 0.01 0.03 0.03 0.01 0.00 0.00 0.01 0.01 0.00 0.00 0.00 0.00 0.01 0.06 0.05 0.03 0.02 0.01 0.00 0.00 0.00 0.00 0.01 0.03 0.02 0.00 0.00 0.01 0.04 0.05 0.05 0.03 0.02 0.02 0.07 0.10 0.13 0.12 0.12 0.12 0.11 0.08 0.05 0.05 0.05
0.01 0.00 0.00 0.00 0.00 0.01 0.03 0.02 0.02 0.03 0.03 0.01 0.00 0.00 0.01 0.01 0.00 0.00 0.02 0.09 0.14 0.15 0.10 0.05 0.02 0.01 0.01 0.01 0.00 0.00 0.00 0.00 0.01 0.01 0.00 0.00 0.00 0.02 0.07 0.12 0.10 0.03 0.05 0.13 0.19 0.20 0.21 0.21 0.20 0.18 0.16 0.16 0.15 0.11
0.01 0.00 0.00 0.00 0.01 0.04 0.09 0.04 0.01 0.01 0.00 0.00 0.03 0.03 0.02 0.01 0.00 0.02 0.07 0.09 0.04 0.01 0.00 0.00 0.00 0.00 0.00 0.00 0.00 0.00 0.00 0.00 0.00 0.01 0.01 0.00 0.00 0.00 0.01 0.03 0.05 0.10 0.13 0.15 0.16 0.17 0.19 0.19 0.18 0.18 0.19 0.18 0.15 0.15
0.01 0.00 0.00 0.01 0.00 0.00 0.00 0.00 0.00 0.00 0.00 0.02 0.08 0.06 0.03 0.02 0.01 0.02 0.02 0.01 0.00 0.00 0.00 0.01 0.00 0.00 0.00 0.00 0.00 0.00 0.00 0.01 0.03 0.04 0.02 0.00 0.00 0.00 0.01 0.05 0.10 0.14 0.15 0.15 0.15 0.14 0.14 0.16 0.17 0.17 0.17 0.18 0.18 0.21
0.00 0.00 0.00 0.00 0.00 0.00 0.00 0.00 0.00 0.00 0.00 0.01 0.04 0.03 0.01 0.00 0.00 0.00 0.00 0.00 0.00 0.02 0.03 0.02 0.00 0.00 0.00 0.00 0.00 0.00 0.00 0.00 0.01 0.06 0.09 0.04 0.02 0.03 0.05 0.05 0.07 0.10 0.15 0.20 0.19 0.20 0.22 0.22 0.22 0.23 0.23 0.22 0.21 0.21
0.00 0.00 0.00 0.00 0.00 0.00 0.00 0.00 0.00 0.00 0.00 0.00 0.00 0.00 0.00 0.00 0.00 0.01 0.01 0.02 0.04 0.04 0.02 0.00 0.00 0.00 0.00 0.00 0.00 0.01 0.00 0.00 0.00 0.00 0.02 0.05 0.06 0.06 0.05 0.04 0.04 0.07 0.12 0.17 0.18 0.18 0.17 0.17 0.16 0.16 0.18 0.17 0.16 0.16
0.00 0.00 0.00 0.00 0.00 0.00 0.00 0.00 0.00 0.00 0.00 0.00 0.00 0.00 0.00 0.00 0.01 0.03 0.04 0.06 0.04 0.00 0.00 0.00 0.00 0.00 0.00 0.00 0.00 0.01 0.02 0.02 0.01 0.01 0.02 0.05 0.06 0.06 0.07 0.08 0.08 0.10 0.12 0.13 0.15 0.16 0.16 0.17 0.17 0.16 0.17 0.19 0.19 0.19
0.00 0.00 0.00 0.00 0.00 0.00 0.00 0.00 0.00 0.00 0.00 0.00 0.00 0.00 0.00 0.02 0.04 0.07 0.09 0.04 0.00 0.00 0.00 0.00 0.00 0.00 0.00 0.00 0.00 0.01 0.01 0.01 0.01 0.02 0.04 0.06 0.09 0.10 0.14 0.15 0.14 0.14 0.16 0.16 0.16 0.17 0.21 0.22 0.22 0.20 0.20 0.19 0.18 0.17